When you browse on this site, cookies collect data to enhance your experience and personalize the content and advertising you see.
Visit our Privacy Policy to learn more. By continuing to use the site, you agree to this use of cookies and data.
  • In Hungary
  • List of Countries
  • For 7 days
  • Water Temperature
  • Satellite Maps
  • Weather Map
  • News
  • Weather Widgets
  • user-avatar
    Login

    Hourly Weather Saratoga

    Today, 17 June, Monday

    Time Temperature Precipitation Wind Pressure Humidity
    00:00 +14°C° 0 mm 1 mps 744 mmHg 85%
    01:00 +14°C° 0 mm 1 mps 744 mmHg 86%
    02:00 +14°C° 0 mm 1 mps 743 mmHg 85%
    03:00 +14°C° 0 mm 1 mps 743 mmHg 84%
    04:00 +14°C° 0 mm 1 mps 743 mmHg 84%
    05:00 +16°C° 0 mm 1 mps 743 mmHg 76%
    06:00 +18°C° 0 mm 1 mps 743 mmHg 68%
    07:00 +20°C° 0 mm 1 mps 744 mmHg 60%
    08:00 +23°C° 0 mm 1 mps 744 mmHg 52%
    09:00 +26°C° 0 mm 1 mps 744 mmHg 45%
    10:00 +28°C° 0 mm 1 mps 744 mmHg 37%
    11:00 +29°C° 0 mm 2 mps 744 mmHg 37%
    12:00 +30°C° 0 mm 2 mps 744 mmHg 36%
    13:00 +31°C° 0 mm 2 mps 744 mmHg 36%
    14:00 +31°C° 0 mm 2 mps 744 mmHg 38%
    15:00 +30°C° 0 mm 2 mps 744 mmHg 39%
    16:00 +30°C° 0 mm 2 mps 744 mmHg 41%
    17:00 +27°C° 0 mm 2 mps 744 mmHg 47%
    18:00 +25°C° 0 mm 2 mps 744 mmHg 54%
    19:00 +23°C° 0 mm 1 mps 744 mmHg 60%
    20:00 +22°C° 0 mm 1 mps 744 mmHg 63%
    21:00 +21°C° 0 mm 1 mps 745 mmHg 66%
    22:00 +19°C° 0 mm 1 mps 745 mmHg 68%
    23:00 +19°C° 0 mm 1 mps 745 mmHg 69%

    Tomorrow, 18 June, Tuesday

    Time Temperature Precipitation Wind Pressure Humidity
    00:00 +19°C° 0 mm 1 mps 745 mmHg 70%
    01:00 +18°C° 0 mm 1 mps 745 mmHg 71%
    02:00 +18°C° 0 mm 1 mps 745 mmHg 72%
    03:00 +18°C° 0 mm 1 mps 745 mmHg 72%
    04:00 +18°C° 0 mm 1 mps 745 mmHg 73%
    05:00 +19°C° 0 mm 1 mps 745 mmHg 67%
    06:00 +21°C° 0 mm 1 mps 746 mmHg 62%
    07:00 +23°C° 0 mm 1 mps 746 mmHg 56%
    08:00 +25°C° 0 mm 1 mps 746 mmHg 51%
    09:00 +27°C° 0 mm 1 mps 747 mmHg 45%
    10:00 +30°C° 0 mm 2 mps 747 mmHg 40%
    11:00 +31°C° 0 mm 2 mps 747 mmHg 39%
    12:00 +31°C° 0 mm 2 mps 747 mmHg 38%
    13:00 +32°C° 0 mm 2 mps 747 mmHg 38%
    14:00 +31°C° 0 mm 2 mps 747 mmHg 40%
    15:00 +30°C° 0 mm 2 mps 746 mmHg 41%
    16:00 +29°C° 0 mm 2 mps 746 mmHg 43%
    17:00 +27°C° 0 mm 2 mps 746 mmHg 50%
    18:00 +25°C° 0 mm 2 mps 746 mmHg 56%
    19:00 +23°C° 0 mm 2 mps 747 mmHg 62%
    20:00 +21°C° 0 mm 1 mps 747 mmHg 67%
    21:00 +20°C° 0 mm 1 mps 747 mmHg 71%
    22:00 +19°C° 0 mm 1 mps 747 mmHg 75%
    23:00 +18°C° 0 mm 1 mps 747 mmHg 76%

    Day after tomorrow, 19 June, Wednesday

    Time Temperature Precipitation Wind Pressure Humidity
    00:00 +18°C° 0 mm 1 mps 747 mmHg 76%
    01:00 +18°C° 0 mm 1 mps 747 mmHg 77%
    02:00 +16°C° 0 mm 1 mps 747 mmHg 78%
    03:00 +16°C° 0 mm 1 mps 747 mmHg 79%
    04:00 +16°C° 0 mm 1 mps 747 mmHg 80%
    05:00 +18°C° 0 mm 1 mps 747 mmHg 74%
    06:00 +20°C° 0 mm 1 mps 747 mmHg 69%
    07:00 +21°C° 0 mm 1 mps 748 mmHg 63%
    08:00 +24°C° 0 mm 1 mps 748 mmHg 55%
    09:00 +27°C° 0 mm 1 mps 748 mmHg 48%
    10:00 +29°C° 0 mm 1 mps 748 mmHg 40%
    11:00 +30°C° 0 mm 2 mps 748 mmHg 38%
    12:00 +31°C° 0 mm 2 mps 748 mmHg 37%
    13:00 +32°C° 0 mm 2 mps 747 mmHg 35%
    14:00 +31°C° 0 mm 2 mps 747 mmHg 37%
    15:00 +31°C° 0 mm 2 mps 747 mmHg 39%
    16:00 +30°C° 0 mm 2 mps 747 mmHg 41%
    17:00 +28°C° 0 mm 2 mps 747 mmHg 48%
    18:00 +25°C° 0 mm 2 mps 747 mmHg 55%
    19:00 +23°C° 0 mm 2 mps 747 mmHg 62%
    20:00 +22°C° 0 mm 1 mps 747 mmHg 67%
    21:00 +20°C° 0 mm 1 mps 747 mmHg 71%
    22:00 +19°C° 0 mm 1 mps 747 mmHg 76%
    23:00 +18°C° 0 mm 1 mps 747 mmHg 78%

    20 June, Thursday

    Time Temperature Precipitation Wind Pressure Humidity
    00:00 +18°C° 0 mm 1 mps 747 mmHg 80%
    01:00 +16°C° 0 mm 1 mps 747 mmHg 82%
    02:00 +16°C° 0 mm 1 mps 747 mmHg 82%
    03:00 +16°C° 0 mm 1 mps 746 mmHg 83%
    04:00 +16°C° 0 mm 1 mps 746 mmHg 83%
    05:00 +18°C° 0 mm 1 mps 746 mmHg 78%
    06:00 +19°C° 0 mm 1 mps 747 mmHg 73%
    07:00 +20°C° 0 mm 1 mps 747 mmHg 68%
    08:00 +23°C° 0 mm 1 mps 747 mmHg 60%
    09:00 +25°C° 0 mm 2 mps 747 mmHg 52%
    10:00 +27°C° 0 mm 2 mps 747 mmHg 44%
    11:00 +28°C° 0 mm 2 mps 747 mmHg 43%
    12:00 +29°C° 0 mm 3 mps 747 mmHg 41%
    13:00 +29°C° 0 mm 3 mps 746 mmHg 40%
    14:00 +28°C° 0 mm 3 mps 746 mmHg 41%
    15:00 +28°C° 0 mm 3 mps 746 mmHg 43%
    16:00 +27°C° 0 mm 3 mps 745 mmHg 45%
    17:00 +25°C° 0 mm 3 mps 745 mmHg 52%
    18:00 +23°C° 0 mm 2 mps 745 mmHg 59%
    19:00 +20°C° 0 mm 2 mps 745 mmHg 65%
    20:00 +18°C° 0 mm 2 mps 745 mmHg 72%
    21:00 +16°C° 0 mm 2 mps 745 mmHg 78%
    22:00 +15°C° 0 mm 2 mps 745 mmHg 84%
    23:00 +14°C° 0 mm 2 mps 745 mmHg 84%

    21 June, Friday

    Time Temperature Precipitation Wind Pressure Humidity
    00:00 +14°C° 0 mm 2 mps 745 mmHg 84%
    01:00 +13°C° 0 mm 2 mps 744 mmHg 84%
    02:00 +13°C° 0 mm 2 mps 744 mmHg 85%
    03:00 +12°C° 0 mm 2 mps 744 mmHg 85%
    04:00 +12°C° 0 mm 2 mps 744 mmHg 86%
    05:00 +13°C° 0 mm 2 mps 744 mmHg 82%
    06:00 +14°C° 0 mm 2 mps 744 mmHg 78%
    07:00 +14°C° 0 mm 2 mps 744 mmHg 74%
    08:00 +17°C° 0 mm 2 mps 744 mmHg 66%
    09:00 +19°C° 0 mm 2 mps 744 mmHg 57%
    10:00 +23°C° 0 mm 1 mps 745 mmHg 48%
    11:00 +25°C° 0 mm 2 mps 744 mmHg 45%
    12:00 +26°C° 0 mm 2 mps 744 mmHg 41%
    13:00 +28°C° 0 mm 2 mps 744 mmHg 38%
    14:00 +27°C° 0 mm 3 mps 744 mmHg 38%
    15:00 +27°C° 0 mm 4 mps 744 mmHg 38%
    16:00 +26°C° 0 mm 4 mps 743 mmHg 39%
    17:00 +25°C° 0 mm 3 mps 743 mmHg 44%
    18:00 +22°C° 0 mm 3 mps 743 mmHg 49%
    19:00 +20°C° 0 mm 2 mps 743 mmHg 55%
    20:00 +19°C° 0 mm 2 mps 743 mmHg 57%
    21:00 +18°C° 0 mm 1 mps 744 mmHg 60%
    22:00 +16°C° 0 mm 1 mps 744 mmHg 62%
    23:00 +16°C° 0 mm 1 mps 744 mmHg 63%

    22 June, Saturday

    Time Temperature Precipitation Wind Pressure Humidity
    00:00 +15°C° 0 mm 1 mps 744 mmHg 65%
    01:00 +15°C° 0 mm 1 mps 744 mmHg 66%
    02:00 +15°C° 0 mm 1 mps 744 mmHg 67%
    03:00 +15°C° 0 mm 1 mps 744 mmHg 67%
    04:00 +14°C° 0 mm 1 mps 744 mmHg 68%
    05:00 +15°C° 0 mm 0 mps 745 mmHg 63%
    06:00 +17°C° 0 mm 0 mps 745 mmHg 59%
    07:00 +18°C° 0 mm 0 mps 745 mmHg 54%
    08:00 +23°C° 0 mm 1 mps 746 mmHg 47%
    09:00 +25°C° 0 mm 1 mps 746 mmHg 40%
    10:00 +28°C° 0 mm 1 mps 746 mmHg 33%
    11:00 +29°C° 0 mm 2 mps 746 mmHg 32%
    12:00 +30°C° 0 mm 2 mps 746 mmHg 30%
    13:00 +30°C° 0 mm 2 mps 746 mmHg 29%
    14:00 +30°C° 0 mm 3 mps 746 mmHg 31%
    15:00 +29°C° 0 mm 3 mps 746 mmHg 34%
    16:00 +28°C° 0 mm 3 mps 745 mmHg 36%
    17:00 +26°C° 0 mm 3 mps 745 mmHg 44%
    18:00 +23°C° 0 mm 2 mps 745 mmHg 52%
    19:00 +20°C° 0 mm 2 mps 745 mmHg 60%
    20:00 +18°C° 0 mm 2 mps 746 mmHg 65%
    21:00 +18°C° 0 mm 1 mps 746 mmHg 71%
    22:00 +15°C° 0 mm 1 mps 746 mmHg 76%
    23:00 +15°C° 0 mm 1 mps 746 mmHg 78%
    Show more